| time (UTC) | temp F | wind direction | speed knots | gust knots | rain 1hr in | rain 24hr in | rain mn in | humidity % | barometer mb |
| 20260505130104 | 51 | 282 | 8.7 | 8.7 | 0.00 | 0.02 | 0.02 | 50 | 1003.4 |
| 20260505124711 | 53 | 273 | 5.2 | 10.4 | 0.00 | 0.02 | 0.02 | 48 | 1003.4 |
| 20260505124009 | 54 | 340 | 2.6 | 5.2 | 0.00 | 0.02 | 0.02 | 48 | 1003.3 |
| 20260505123308 | 56 | 342 | 2.6 | 6.1 | 0.00 | 0.02 | 0.02 | 50 | 1003.2 |
| 20260505122605 | 55 | 251 | 4.3 | 7.0 | 0.00 | 0.02 | 0.02 | 52 | 1003.2 |
| 20260505121903 | 52 | 345 | 2.6 | 5.2 | 0.00 | 0.02 | 0.02 | 56 | 1003.2 |
| 20260505121212 | 52 | 24 | 4.3 | 5.2 | 0.00 | 0.02 | 0.02 | 55 | 1003.1 |
| 20260505120509 | 54 | 354 | 2.6 | 4.3 | 0.00 | 0.02 | 0.02 | 52 | 1002.9 |
| 20260505115807 | 56 | 340 | 5.2 | 7.8 | 0.00 | 0.02 | 0.02 | 53 | 1002.8 |
| 20260505115103 | 54 | 207 | 5.2 | 8.7 | 0.00 | 0.02 | 0.02 | 54 | 1002.6 |
| 20260505114413 | 54 | 356 | 4.3 | 6.1 | 0.00 | 0.04 | 0.02 | 54 | 1002.5 |
| 20260505113710 | 56 | 286 | 4.3 | 4.3 | 0.00 | 0.04 | 0.02 | 53 | 1002.4 |
| 20260505113008 | 54 | 278 | 4.3 | 7.0 | 0.00 | 0.06 | 0.02 | 52 | 1002.3 |
| 20260505112307 | 54 | 0 | 2.6 | 7.8 | 0.00 | 0.06 | 0.02 | 55 | 1002.2 |
| 20260505111603 | 54 | 269 | 6.1 | 11.3 | 0.00 | 0.06 | 0.02 | 55 | 1002.2 |
| 20260505110901 | 51 | 281 | 4.3 | 8.7 | 0.00 | 0.06 | 0.02 | 59 | 1002.1 |
| 20260505110210 | 52 | 259 | 1.7 | 2.6 | 0.00 | 0.08 | 0.02 | 58 | 1001.9 |
| 20260505102008 | 53 | 347 | 5.2 | 10.4 | 0.00 | 0.10 | 0.02 | 57 | 1001.6 |
| 20260505101306 | 55 | 248 | 4.3 | 11.3 | 0.00 | 0.10 | 0.02 | 59 | 1001.4 |
| 20260505100603 | 53 | 305 | 1.7 | 4.3 | 0.00 | 0.10 | 0.02 | 64 | 1001.4 |
| 20260505095913 | 52 | 265 | 4.3 | 13.0 | 0.00 | 0.10 | 0.02 | 64 | 1001.3 |
| 20260505095211 | 51 | 19 | 4.3 | 6.1 | 0.00 | 0.10 | 0.02 | 68 | 1001.2 |
| 20260505094509 | 49 | 18 | 2.6 | 7.8 | 0.00 | 0.10 | 0.02 | 68 | 1001.0 |
| 20260505093807 | 49 | 329 | 7.8 | 10.4 | 0.00 | 0.10 | 0.02 | 67 | 1001.0 |
| 20260505093104 | 50 | 249 | 10.4 | 13.9 | 0.00 | 0.10 | 0.02 | 67 | 1000.8 |
| 20260505092401 | 51 | 234 | 5.2 | 8.7 | 0.00 | 0.10 | 0.02 | 64 | 1000.7 |
| 20260505091711 | 53 | 237 | 2.6 | 8.7 | 0.00 | 0.10 | 0.02 | 60 | 1000.2 |
| 20260505091008 | 54 | 345 | 7.0 | 10.4 | 0.00 | 0.10 | 0.02 | 58 | 1000.2 |
| 20260505090306 | 57 | 330 | 4.3 | 6.1 | 0.00 | 0.10 | 0.02 | 59 | 1000.2 |
| 20260505085603 | 57 | 22 | 2.6 | 1.7 | 0.00 | 0.10 | 0.02 | 64 | 1000.0 |
| 20260505084901 | 55 | 17 | 0.9 | 2.6 | 0.00 | 0.10 | 0.02 | 65 | 999.9 |
| 20260505084211 | 54 | 333 | 0.9 | 4.3 | 0.00 | 0.10 | 0.02 | 65 | 999.9 |
| 20260505083508 | 54 | 20 | 0.9 | 4.3 | 0.00 | 0.10 | 0.02 | 63 | 999.9 |
| 20260505082805 | 56 | 18 | 1.7 | 5.2 | 0.00 | 0.10 | 0.02 | 62 | 999.9 |
| 20260505082102 | 57 | 6 | 1.7 | 4.3 | 0.00 | 0.10 | 0.02 | 61 | 999.8 |
| 20260505081412 | 58 | 22 | 0.9 | 1.7 | 0.00 | 0.10 | 0.02 | 58 | 1000.0 |
| 20260505080710 | 62 | 4 | 0.9 | 6.1 | 0.00 | 0.10 | 0.02 | 57 | 999.9 |
| 20260505080007 | 64 | 5 | 1.7 | 5.2 | 0.00 | 0.10 | 0.02 | 57 | 999.9 |
| 20260505075305 | 63 | 14 | 1.7 | 6.1 | 0.00 | 0.10 | 0.02 | 61 | 999.8 |
| 20260505074604 | 59 | 18 | 1.7 | 4.3 | 0.00 | 0.10 | 0.02 | 64 | 999.7 |
| 20260505073913 | 58 | 5 | 0.9 | 5.2 | 0.00 | 0.10 | 0.02 | 65 | 999.8 |
| 20260505073210 | 57 | 344 | 1.7 | 2.6 | 0.00 | 0.10 | 0.02 | 63 | 999.7 |
| 20260505072507 | 59 | 264 | 1.7 | 4.3 | 0.00 | 0.10 | 0.02 | 62 | 999.8 |
| 20260505071805 | 60 | 347 | 2.6 | 4.3 | 0.00 | 0.10 | 0.02 | 61 | 999.8 |
| 20260505071103 | 59 | 0 | 1.7 | 5.2 | 0.00 | 0.10 | 0.02 | 64 | 999.7 |
| 20260505070411 | 57 | 350 | 2.6 | 4.3 | 0.00 | 0.10 | 0.02 | 68 | 999.6 |
| 20260505065709 | 55 | 13 | 2.6 | 4.3 | 0.00 | 0.10 | 0.02 | 69 | 999.5 |
| 20260505065006 | 54 | 354 | 2.6 | 4.3 | 0.00 | 0.10 | 0.02 | 73 | 999.3 |
| 20260505064305 | 52 | 343 | 2.6 | 5.2 | 0.00 | 0.10 | 0.02 | 75 | 999.3 |
| 20260505063603 | 51 | 0 | 2.6 | 4.3 | 0.00 | 0.10 | 0.02 | 77 | 999.3 |
| 20260505062911 | 50 | 353 | 2.6 | 5.2 | 0.00 | 0.10 | 0.02 | 79 | 999.5 |
| 20260505062209 | 50 | 9 | 1.7 | 4.3 | 0.00 | 0.10 | 0.02 | 79 | 999.6 |
| 20260505061507 | 49 | 341 | 2.6 | 4.3 | 0.00 | 0.10 | 0.02 | 80 | 999.7 |
| 20260505060805 | 49 | 358 | 2.6 | 4.3 | 0.00 | 0.10 | 0.02 | 79 | 999.9 |
| 20260505055411 | 48 | 325 | 5.2 | 7.8 | 0.00 | 0.10 | 0.02 | 84 | 999.6 |
| 20260505054709 | 46 | 4 | 4.3 | 6.1 | 0.00 | 0.10 | 0.02 | 86 | 999.7 |
| 20260505054006 | 46 | 332 | 2.6 | 5.2 | 0.00 | 0.10 | 0.02 | 86 | 999.5 |
| 20260505053303 | 46 | 11 | 5.2 | 11.3 | 0.00 | 0.10 | 0.02 | 87 | 999.6 |
| 20260505052601 | 45 | 344 | 2.6 | 10.4 | 0.00 | 0.10 | 0.02 | 88 | 999.8 |
| 20260505051910 | 45 | 9 | 1.7 | 4.3 | 0.00 | 0.10 | 0.02 | 87 | 999.7 |
| 20260505051208 | 45 | 9 | 2.6 | 6.1 | 0.00 | 0.10 | 0.02 | 87 | 999.7 |
| 20260505050506 | 46 | 336 | 1.7 | 2.6 | 0.00 | 0.10 | 0.02 | 86 | 999.7 |
| 20260505041611 | 44 | 13 | 1.7 | 2.6 | 0.00 | 0.10 | 0.02 | 89 | 1000.0 |
| 20260505040910 | 44 | 347 | 2.6 | 7.0 | 0.00 | 0.10 | 0.02 | 89 | 1000.1 |
| 20260505040209 | 44 | 331 | 1.7 | 2.6 | 0.00 | 0.10 | 0.02 | 89 | 1000.2 |
| 20260505035507 | 44 | 303 | 0.9 | 1.7 | 0.00 | 0.10 | 0.02 | 89 | 1000.5 |
| 20260505034804 | 43 | 355 | 1.7 | 5.2 | 0.00 | 0.10 | 0.02 | 88 | 1000.5 |
| 20260505034102 | 43 | 304 | 1.7 | 2.6 | 0.00 | 0.10 | 0.02 | 88 | 1000.5 |
| 20260505033411 | 43 | 330 | 0.9 | 0.9 | 0.00 | 0.10 | 0.02 | 88 | 1000.6 |
| 20260505032709 | 43 | 335 | 0.9 | 2.6 | 0.00 | 0.10 | 0.02 | 88 | 1000.7 |
| 20260505032007 | 43 | 52 | 0.0 | 0.0 | 0.00 | 0.10 | 0.02 | 88 | 1000.7 |
| 20260505031305 | 43 | 54 | 0.0 | 1.7 | 0.00 | 0.10 | 0.02 | 88 | 1000.6 |
| 20260505030604 | 42 | 0 | 0.9 | 1.7 | 0.00 | 0.10 | 0.02 | 88 | 1000.6 |
| 20260505025902 | 42 | 349 | 0.9 | 2.6 | 0.00 | 0.10 | 0.02 | 88 | 1000.6 |
| 20260505025212 | 42 | 333 | 0.9 | 1.7 | 0.00 | 0.10 | 0.02 | 88 | 1000.6 |
| 20260505024510 | 42 | 25 | 0.0 | 0.9 | 0.00 | 0.10 | 0.02 | 88 | 1000.5 |
| 20260505023808 | 42 | 340 | 0.9 | 0.9 | 0.00 | 0.10 | 0.02 | 88 | 1000.6 |
| 20260505023107 | 42 | 342 | 0.0 | 0.9 | 0.00 | 0.10 | 0.02 | 88 | 1000.6 |
| 20260505022406 | 42 | 332 | 0.9 | 0.9 | 0.00 | 0.10 | 0.02 | 88 | 1000.7 |
| 20260505021703 | 42 | 0 | 0.9 | 2.6 | 0.00 | 0.10 | 0.02 | 88 | 1000.6 |
| 20260505021013 | 42 | 357 | 0.9 | 0.9 | 0.00 | 0.10 | 0.02 | 88 | 1000.7 |
| 20260505020311 | 42 | 348 | 0.0 | 1.7 | 0.00 | 0.10 | 0.02 | 88 | 1000.7 |
| 20260505015610 | 42 | 0 | 0.9 | 1.7 | 0.00 | 0.10 | 0.02 | 88 | 1000.8 |
| 20260505014908 | 42 | 0 | 0.9 | 1.7 | 0.00 | 0.10 | 0.02 | 88 | 1000.8 |
| 20260505014204 | 41 | 1 | 0.0 | 0.9 | 0.00 | 0.10 | 0.02 | 88 | 1000.8 |
| 20260505013503 | 41 | 0 | 0.0 | 0.0 | 0.00 | 0.10 | 0.02 | 88 | 1000.8 |
| 20260505012801 | 41 | 359 | 0.9 | 1.7 | 0.00 | 0.10 | 0.02 | 88 | 1000.8 |
| 20260505012111 | 41 | 0 | 0.0 | 1.7 | 0.00 | 0.10 | 0.02 | 88 | 1000.8 |
| 20260505011409 | 41 | 7 | 0.0 | 0.0 | 0.02 | 0.10 | 0.02 | 88 | 1000.7 |
| 20260505010705 | 41 | 11 | 0.0 | 0.0 | 0.02 | 0.10 | 0.02 | 88 | 1000.7 |
| 20260505010005 | 41 | 8 | 0.0 | 0.9 | 0.02 | 0.10 | 0.02 | 88 | 1000.6 |
| 20260505005303 | 41 | 6 | 0.0 | 0.0 | 0.02 | 0.10 | 0.02 | 88 | 1000.7 |
| 20260505004612 | 42 | 1 | 0.0 | 0.9 | 0.02 | 0.10 | 0.02 | 88 | 1000.7 |
| 20260505003911 | 42 | 5 | 0.9 | 1.7 | 0.02 | 0.10 | 0.02 | 88 | 1000.7 |
| 20260505003208 | 42 | 13 | 0.0 | 0.0 | 0.02 | 0.10 | 0.02 | 88 | 1000.6 |
| 20260505002506 | 42 | 20 | 0.0 | 0.0 | 0.02 | 0.10 | 0.02 | 88 | 1000.6 |
| 20260505001804 | 43 | 15 | 0.0 | 0.0 | 0.02 | 0.10 | 0.02 | 88 | 1000.6 |
| 20260505001102 | 43 | 15 | 0.0 | 1.7 | 0.00 | 0.08 | 0.00 | 88 | 1000.6 |
| 20260505000413 | 43 | 15 | 0.0 | 0.9 | 0.00 | 0.08 | 0.00 | 88 | 1000.8 |
| 20260504235709 | 43 | 3 | 0.0 | 2.6 | 0.00 | 0.08 | 0.00 | 88 | 1000.8 |
| 20260504235006 | 43 | 3 | 0.0 | 1.7 | 0.00 | 0.08 | 0.00 | 88 | 1000.9 |
| 20260504234303 | 43 | 16 | 0.0 | 0.9 | 0.00 | 0.08 | 0.00 | 88 | 1001.2 |
| 20260504233612 | 43 | 9 | 0.9 | 1.7 | 0.00 | 0.08 | 0.00 | 88 | 1001.2 |
| 20260504232912 | 43 | 18 | 0.0 | 1.7 | 0.00 | 0.08 | 0.00 | 88 | 1001.3 |
| 20260504232209 | 43 | 11 | 0.0 | 0.0 | 0.00 | 0.08 | 0.00 | 88 | 1001.1 |
| 20260504231507 | 43 | 7 | 0.0 | 0.9 | 0.00 | 0.08 | 0.00 | 88 | 1001.1 |
| 20260504230806 | 43 | 14 | 0.0 | 0.0 | 0.00 | 0.08 | 0.00 | 88 | 1001.2 |
| 20260504230103 | 43 | 22 | 0.0 | 0.0 | 0.00 | 0.08 | 0.00 | 88 | 1001.0 |
| 20260504225413 | 43 | 11 | 0.9 | 2.6 | 0.00 | 0.08 | 0.00 | 88 | 1001.1 |
| 20260504224711 | 44 | 0 | 0.0 | 0.0 | 0.00 | 0.08 | 0.00 | 88 | 1001.0 |
| 20260504224009 | 44 | 10 | 0.9 | 1.7 | 0.00 | 0.08 | 0.00 | 88 | 1001.1 |
| 20260504223307 | 44 | 14 | 0.0 | 2.6 | 0.00 | 0.08 | 0.00 | 88 | 1001.1 |
| 20260504222606 | 43 | 22 | 0.0 | 1.7 | 0.00 | 0.08 | 0.00 | 88 | 1001.1 |
| 20260504221904 | 43 | 20 | 0.9 | 1.7 | 0.00 | 0.08 | 0.00 | 88 | 1001.1 |
| 20260504221202 | 42 | 2 | 0.9 | 0.9 | 0.00 | 0.08 | 0.00 | 88 | 1000.9 |
| 20260504220513 | 41 | 22 | 1.7 | 2.6 | 0.00 | 0.08 | 0.00 | 88 | 1000.8 |
| 20260504215811 | 41 | 22 | 0.0 | 0.0 | 0.00 | 0.08 | 0.08 | 88 | 1001.0 |
| 20260504215107 | 40 | 17 | 0.0 | 0.0 | 0.00 | 0.08 | 0.08 | 88 | 1001.0 |
| 20260504214405 | 40 | 12 | 0.9 | 1.7 | 0.00 | 0.08 | 0.08 | 88 | 1000.9 |
| 20260504213704 | 39 | 22 | 0.0 | 0.0 | 0.00 | 0.08 | 0.08 | 88 | 1000.9 |
| 20260504213004 | 40 | 22 | 0.0 | 0.0 | 0.00 | 0.08 | 0.08 | 88 | 1000.8 |
| 20260504212304 | 40 | 22 | 0.0 | 0.0 | 0.00 | 0.08 | 0.08 | 88 | 1000.9 |
| 20260504211612 | 40 | 22 | 0.0 | 0.9 | 0.00 | 0.08 | 0.08 | 88 | 1000.9 |
| 20260504210911 | 40 | 22 | 0.0 | 0.0 | 0.00 | 0.08 | 0.08 | 88 | 1000.9 |
| 20260504210209 | 40 | 22 | 0.0 | 0.0 | 0.00 | 0.08 | 0.08 | 88 | 1000.9 |
| 20260504205508 | 40 | 22 | 0.0 | 0.0 | 0.00 | 0.08 | 0.08 | 88 | 1000.9 |
| 20260504204806 | 40 | 22 | 0.0 | 0.0 | 0.00 | 0.08 | 0.08 | 88 | 1001.0 |
| 20260504204103 | 40 | 22 | 0.0 | 0.0 | 0.00 | 0.08 | 0.08 | 88 | 1001.1 |
| 20260504203402 | 40 | 22 | 0.0 | 0.0 | 0.00 | 0.08 | 0.08 | 88 | 1001.0 |
| 20260504202713 | 40 | 22 | 0.0 | 0.0 | 0.00 | 0.08 | 0.08 | 88 | 1000.9 |
| 20260504202011 | 40 | 22 | 0.0 | 0.9 | 0.00 | 0.08 | 0.08 | 88 | 1000.8 |
| 20260504201309 | 40 | 22 | 0.0 | 0.0 | 0.00 | 0.08 | 0.08 | 88 | 1000.8 |
| 20260504200606 | 41 | 22 | 0.0 | 0.0 | 0.00 | 0.08 | 0.08 | 88 | 1000.8 |
| 20260504195903 | 41 | 22 | 0.9 | 0.9 | 0.00 | 0.08 | 0.08 | 89 | 1000.7 |
| 20260504195202 | 41 | 22 | 0.0 | 0.9 | 0.00 | 0.08 | 0.08 | 89 | 1000.7 |
| 20260504194511 | 41 | 22 | 0.0 | 0.9 | 0.00 | 0.08 | 0.08 | 89 | 1000.7 |
| 20260504193809 | 41 | 18 | 0.0 | 0.0 | 0.00 | 0.08 | 0.08 | 89 | 1000.6 |
| 20260504193106 | 42 | 22 | 0.9 | 0.0 | 0.00 | 0.08 | 0.08 | 89 | 1000.7 |
| 20260504192404 | 42 | 22 | 0.0 | 0.9 | 0.00 | 0.08 | 0.08 | 88 | 1000.6 |
| 20260504191702 | 42 | 22 | 0.0 | 0.9 | 0.00 | 0.08 | 0.08 | 88 | 1000.8 |
| 20260504191001 | 42 | 22 | 0.0 | 0.0 | 0.00 | 0.08 | 0.08 | 88 | 1000.7 |
| 20260504190312 | 42 | 22 | 0.0 | 0.0 | 0.00 | 0.08 | 0.08 | 88 | 1000.7 |
| 20260504185611 | 43 | 22 | 0.0 | 1.7 | 0.00 | 0.08 | 0.08 | 88 | 1000.7 |
| 20260504184910 | 43 | 22 | 0.0 | 0.0 | 0.00 | 0.08 | 0.08 | 88 | 1000.7 |
| 20260504184208 | 44 | 22 | 0.0 | 0.9 | 0.00 | 0.08 | 0.08 | 87 | 1000.6 |
| 20260504183505 | 44 | 22 | 0.0 | 0.0 | 0.00 | 0.08 | 0.08 | 87 | 1000.6 |
| 20260504182803 | 45 | 22 | 0.0 | 0.0 | 0.00 | 0.08 | 0.08 | 86 | 1000.5 |
| 20260504182112 | 46 | 22 | 0.0 | 0.0 | 0.00 | 0.08 | 0.08 | 86 | 1000.4 |
| 20260504181410 | 47 | 22 | 0.0 | 0.0 | 0.00 | 0.08 | 0.08 | 86 | 1000.5 |
| 20260504180707 | 47 | 22 | 0.0 | 0.9 | 0.00 | 0.08 | 0.08 | 86 | 1000.5 |
| 20260504180005 | 47 | 22 | 0.0 | 0.0 | 0.00 | 0.08 | 0.08 | 86 | 1000.4 |
| 20260504175304 | 47 | 22 | 0.0 | 0.0 | 0.00 | 0.08 | 0.08 | 86 | 1000.2 |
| 20260504174614 | 47 | 22 | 0.0 | 0.0 | 0.00 | 0.08 | 0.08 | 86 | 1000.2 |
| 20260504173910 | 47 | 22 | 0.0 | 0.0 | 0.00 | 0.08 | 0.08 | 86 | 1000.1 |
| 20260504173208 | 46 | 22 | 0.0 | 0.0 | 0.00 | 0.08 | 0.08 | 86 | 1000.2 |
| 20260504172505 | 47 | 22 | 0.0 | 0.0 | 0.00 | 0.08 | 0.08 | 85 | 1000.1 |
| 20260504171803 | 47 | 22 | 0.0 | 0.0 | 0.00 | 0.08 | 0.08 | 85 | 1000.0 |
| 20260504171113 | 48 | 22 | 0.0 | 0.0 | 0.00 | 0.08 | 0.08 | 84 | 1000.0 |
| 20260504170410 | 49 | 22 | 0.0 | 0.0 | 0.00 | 0.08 | 0.08 | 83 | 1000.0 |
| 20260504160105 | 53 | 22 | 0.0 | 0.0 | 0.00 | 0.08 | 0.08 | 79 | 999.9 |
| 20260504151149 | 54 | 22 | 0.9 | 1.7 | 0.00 | 0.08 | 0.08 | 81 | 1000.3 |
| 20260504150457 | 53 | 22 | 0.0 | 0.0 | 0.00 | 0.08 | 0.08 | 80 | 1000.4 |
| 20260504140853 | 55 | 22 | 0.0 | 0.9 | 0.00 | 0.08 | 0.08 | 80 | 1000.5 |
| 20260504140151 | 56 | 22 | 0.0 | 0.9 | 0.00 | 0.08 | 0.08 | 82 | 1000.6 |